User: anonymous   Login
Location: Norton
(51.3000°N, 0.8167°E)
Time: 23:37:59
(UTC+00:00)
Language:

SeaSat 1 - Orbit

View from above orbital plane
View from above orbital plane
View from above satellite
View from above satellite

Ground track
Ground track

The orbit data is extracted from the following two-line orbital elements,

1 10967U 78064A   21138.58995347 -.00000061  00000-0  22404-4 0  9997
2 10967 107.9963  51.2636 0002249 256.7027 103.3866 14.43877647252882
Epoch (UTC): 18 May 2021 14:09:31
Eccentricity: 0.0002249
inclination: 107.9963°
perigee height: 744 km
apogee height: 747 km
right ascension of ascending node: 51.2636°
argument of perigee: 256.7027°
revolutions per day: 14.43877647
mean anomaly at epoch: 103.3866°
orbit number at epoch: 25288

The dashed part of the orbit path shows where the satellite is in the earth's shadow,  

DLR